Location: Newark
(41.0400°S, 62.7845°W)
Time: 03:41:51
(UTC+00:00)

Vanguard 2 Rocket - Pass Details

Date: 05 December 2021
Orbit: 554 x 3325 km, 32.9° (Epoch: 21 January)

Event Time Altitude Azimuth Distance (km) Brightness Sun altitude
Rises 13:52:33 0° 264° (W) 6,152 10.8 57.1°
Reaches altitude 10° 13:57:40 10° 271° (W) 4,667 10.3 58.0°
Maximum altitude 14:07:51 34° 329° (NNW) 2,201 9.3 59.7°
Drops below altitude 10° 14:14:07 10° 32° (NNE) 2,835 10.0 60.7°
Sets 14:16:28 0° 42° (NE) 3,520 10.3 61.1°
